This demonstration page uses our WeatherBlox Daily Observations layout. Learn more.

Left ArrowRight Arrow

39.01783, -85.05884

Hourly Observations for May 23, 2019

Temp ( °F °C ) Dew Point ( °F °C ) Humidity (%) Winds ( mph kmh ) Pressure ( in mb ) Visibility ( mi km ) Precip ( " mm )
12:52 am 00:52 Clear 70 21.1 67 19.4 90 90 S 9 15 30.02 1017 10 16 0.00 0.00
1:52 am 01:52 Clear 69 20.6 66 18.9 90 90 S 7 11 30.03 1017 10 16 0.00 0.00
2:52 am 02:52 Mostly Cloudy 70 21.1 66 18.9 87 87 S 7 11 30.02 1017 10 16 0.00 0.00
4:52 am 04:52 Cloudy 69 20.6 65 18.3 87 87 S 7 11 30.03 1017 10 16 0.00 0.00
5:52 am 05:52 Mostly Cloudy 71 21.7 64 17.8 79 79 SSW 7 11 30.04 1017 10 16 0.00 0.00
6:52 am 06:52 Cloudy 71 21.7 64 17.8 79 79 SW 9 15 30.05 1018 10 16 0.00 0.00
7:40 am 07:40 Cloudy with Nearby Thunderstorms 72 22.2 64 17.8 76 76 SSW 10 17 30.06 1018 10 16 0.00 0.00
7:52 am 07:52 Cloudy with Thunderstorms 72 22.2 64 17.8 76 76 SSW 14 22 30.07 1018 10 16 0.00 0.00
8:21 am 08:21 Cloudy with Thunderstorms 71 21.7 63 17.2 76 76 NW 22 35 30.13 1020 10 16 0.00 0.00
8:33 am 08:33 Windy with Storms Likely 68 20 63 17.2 84 84 NW 21 33 30.16 1021 6 10 0.01 0.25
8:36 am 08:36 Cloudy with Thunderstorms 67 19.4 63 17.2 87 87 NW 24 39 30.16 1021 1 1 0.04 1.02
8:40 am 08:40 Cloudy with Thunderstorms 67 19.4 63 17.2 87 87 NW 22 35 30.16 1021 3 5 0.13 3.30
8:52 am 08:52 Cloudy with Thunderstorms 67 19.4 64 17.8 91 91 WNW 13 20 30.16 1022 4 6 0.15 3.81
9:03 am 09:03 Cloudy with Thunderstorms 67 19.4 64 17.8 91 91 WNW 9 15 30.17 1022 5 8 0.03 0.76
9:26 am 09:26 Cloudy with Light Rain 66 18.9 63 17.2 90 90 W 7 11 30.17 1022 5 8 0.06 1.52
9:52 am 09:52 Cloudy with Light Rain 67 19.4 64 17.8 91 91 SSE 7 11 30.13 1020 7 11 0.10 2.54
10:52 am 10:52 Cloudy 68 20 64 17.8 87 87 S 7 11 30.11 1020 10 16 0.01 0.25
11:12 am 11:12 Cloudy with Nearby Thunderstorms 69 20.6 64 17.8 84 84 SSW 10 17 30.14 1021 10 16 0.00 0.03
11:19 am 11:19 Cloudy with Thunderstorms 68 20 64 17.8 87 87 S 12 19 30.12 1020 6 10 0.01 0.25
11:40 am 11:40 Cloudy with Nearby Thunderstorms 67 19.4 64 17.8 91 91 S 12 19 30.13 1020 10 16 0.01 0.25
11:52 am 11:52 Cloudy 68 20 64 17.8 87 87 S 10 17 30.10 1019 10 16 0.01 0.25
12:52 pm 12:52 Cloudy 70 21.1 66 18.9 87 87 S 13 20 30.09 1019 10 16 0.00 0.00
1:52 pm 13:52 Mostly Cloudy 77 25 69 20.6 77 77 SSW 10 17 30.07 1018 10 16 0.00 0.00
2:52 pm 14:52 Mostly Cloudy 81 27.2 70 21.1 69 69 SW 15 24 30.06 1018 10 16 0.00 0.00
3:52 pm 15:52 Partly Cloudy 84 28.9 71 21.7 65 65 SW 12 19 30.03 1017 10 16 0.00 0.00
4:24 pm 16:24 Mostly Cloudy with Thunderstorms 83 28.3 70 21.1 65 65 SSW 15 24 30.01 1016 10 16 0.00 0.00
4:38 pm 16:38 Cloudy with Strong Thunderstorms 78 25.6 70 21.1 76 76 SSW 23 37 30.02 1017 2 3 0.02 0.51
4:45 pm 16:45 Cloudy with Thunderstorms 75 23.9 68 20 79 79 SW 14 22 30.02 1016 7 11 0.19 4.83
4:52 pm 16:52 Cloudy with Thunderstorms 76 24.4 67 19.4 74 74 SSW 14 22 30.04 1017 9 14 0.19 4.83
5:36 pm 17:36 Cloudy with Strong Thunderstorms 73 22.8 67 19.4 81 81 WNW 21 33 30.07 1018 2 3 0.16 4.06
5:41 pm 17:41 Cloudy with Strong Thunderstorms 72 22.2 67 19.4 84 84 W 21 33 30.08 1019 1 2 0.24 6.10
5:45 pm 17:45 Cloudy with Strong Thunderstorms 72 22.2 67 19.4 84 84 S 18 30 30.06 1018 1 1 0.47 11.94
5:52 pm 17:52 Cloudy with Thunderstorms 72 22.2 68 20 87 87 VRB 7 11 30.04 1017 7 11 0.85 21.59
6:30 pm 18:30 Cloudy 76 24.4 70 21.1 82 82 S 6 9 30.03 1017 10 16 0.03 0.76
6:38 pm 18:38 Mostly Cloudy with Thunderstorms 76 24.4 70 21.1 82 82 S 3 6 30.03 1017 10 16 0.03 0.76
7:17 pm 19:17 Mostly Cloudy 78 25.6 71 21.7 79 79 S 7 11 30.03 1017 10 16 0.01 0.25
7:52 pm 19:52 Partly Cloudy 78 25.6 71 21.7 79 79 SW 6 9 30.03 1017 10 16 0.01 0.25
8:52 pm 20:52 Mostly Clear 75 23.9 69 20.6 82 82 SSW 7 11 30.04 1017 10 16 0.00 0.00
9:52 pm 21:52 Mostly Clear 74 23.3 69 20.6 85 85 SW 7 11 30.05 1018 10 16 0.00 0.00
10:52 pm 22:52 Clear 73 22.8 69 20.6 87 87 SSW 3 6 30.07 1018 9 14 0.00 0.00
11:52 pm 23:52 Clear 73 22.8 69 20.6 87 87 W 5 7 30.07 1018 9 14 0.00 0.00

Powered by AerisWeather